Torna al catalogo

ICEYE-X51

AttivoScienzaSSO
NORAD 63257·PAYLOAD·🇺🇸 United States

Lanciato Mar 15, 2025 da Vandenberg Space Force Base

Loading…

Prossimi Passaggi (prossime 24 ore)

TLE

AggiornatoSource: Space-Track

Epoca: Sep 14, 2026, 20:40 UTC

1 63257U 25052AZ  26257.86121865  .00003772  00000-0  30130-3 0  9995
2 63257  97.7701 152.8601 0001854  61.0141 299.1268 15.00867786 82252

Traccia ICEYE-X51 in tempo reale con AllMySat

Download on the App Store